Nellis AFB, NV

8:23 AM PST on December 14, 2019 (GMT -0800)
Nellis Air Force Base

Weather History for KLSV - October, 2019

Change the Weather History Date:

Thursday, October 3, 2019

  Actual Average Record
Temperature  
Mean Temperature 66 °F -  
Max Temperature 85 °F 87 °F 98 °F (2000)
Min Temperature 48 °F 60 °F 48 °F (2002)
Cooling Degree Days 2    
Growing Degree Days 16 (Base 50)    
Moisture  
Dew Point 15 °F    
Average Humidity 13    
Maximum Humidity 17    
Minimum Humidity 9    
Precipitation  
Precipitation 0.00 in - - ()
Sea Level Pressure  
Sea Level Pressure 29.88 in    
Wind  
Wind Speed 4 mph (East)    
Max Wind Speed 13 mph    
Max Gust Speed -    
Visibility 10 miles    
Events      
Averages and records for this station are not official NWS values.
T = Trace of Precipitation, MM = Missing Value Source: NWS Daily Summary

Daily Weather History Graph

Daily Weather History Graph

Search for Another Location

Airport or City:

Astronomy

Oct. 03, 2019 Rise Set
Actual Time 6:36 AM PDT 6:20 PM PDT
Civil Twilight 6:11 AM PDT 6:46 PM PDT
Nautical Twilight 5:41 AM PDT 7:16 PM PDT
Astronomical Twilight 5:11 AM PDT 7:46 PM PDT
Moon 12:03 PM PDT (10/3) 10:12 PM PDT (10/3)
Length of Visible Light 12h 35m
Length of Day
11h 44m
Waxing Crescent, 31% of the Moon is Illuminated
Oct 3
Waxing Crescent
Oct 5
First Quarter
Oct 13
Full
Oct 21
Last Quarter
Oct 27
New

Hourly Weather History & Observations

Time (PDT) Temp. Dew Point Humidity Pressure Visibility Wind Dir Wind Speed Gust Speed Precip Events Conditions
12:58 AM 53.6 °F 3.2 °F 13% 29.96 in 10.0 mi NNE 1.2 mph - N/A   Clear
1:58 AM 51.8 °F 3.2 °F 14% 29.96 in 10.0 mi North 2.3 mph - N/A   Clear
2:58 AM 51.8 °F 3.2 °F 14% 29.95 in 10.0 mi East 2.3 mph - N/A   Clear
3:58 AM 51.8 °F 3.2 °F 14% 29.94 in 10.0 mi NE 4.6 mph - N/A   Clear
4:58 AM 50.0 °F 6.8 °F 17% 29.94 in 10.0 mi North 2.3 mph - N/A   Clear
5:58 AM 48.2 °F 3.2 °F 16% 29.94 in 10.0 mi NE 1.2 mph - N/A   Clear
6:58 AM 48.7 °F 5.9 °F 17% 29.96 in 10.0 mi Calm Calm - N/A   Clear
7:58 AM 55.8 °F 10.2 °F 16% 29.97 in 10.0 mi Calm Calm - N/A   Clear
8:58 AM 57.7 °F 11.8 °F 16% 29.99 in 10.0 mi Calm Calm - N/A   Clear
9:58 AM 66.4 °F 10.2 °F 11% 29.97 in 10.0 mi Calm Calm - N/A   Clear
10:58 AM 74.5 °F 14.4 °F 10% 29.94 in 10.0 mi NNE 5.8 mph - N/A   Clear
11:58 AM 76.8 °F 13.6 °F 9% 29.92 in 10.0 mi SSE 3.5 mph - N/A   Clear
12:58 PM 79.2 °F 15.4 °F 9% 29.92 in 10.0 mi Calm Calm - N/A   Clear
1:58 PM 81.7 °F 17.4 °F 9% 29.89 in 10.0 mi ESE 5.8 mph - N/A   Clear
2:58 PM 83.7 °F 21.4 °F 10% 29.83 in 10.0 mi ENE 8.1 mph - N/A   Clear
3:58 PM 84.9 °F 26.6 °F 12% 29.80 in 10.0 mi East 8.1 mph - N/A   Clear
4:58 PM 85.1 °F 28.8 °F 13% 29.77 in 10.0 mi East 12.7 mph - N/A   Clear
5:58 PM 83.8 °F 29.5 °F 14% 29.77 in 10.0 mi East 11.5 mph - N/A   Clear
6:58 PM 80.6 °F 24.8 °F 13% 29.78 in 10.0 mi SSE 4.6 mph - N/A   Clear
7:58 PM 79.3 °F 22.3 °F 12% 29.77 in 10.0 mi SE 12.7 mph - N/A   Clear
8:58 PM 77.7 °F 19.0 °F 11% 29.80 in 10.0 mi South 9.2 mph - N/A   Clear
9:58 PM 77.0 °F 17.6 °F 11% 29.77 in 10.0 mi SSW 10.4 mph - N/A   Clear
10:58 PM 73.4 °F 19.4 °F 13% 29.80 in 10.0 mi SSW 9.2 mph - N/A   Clear
11:55 PM 70.2 °F 21.9 °F 16% 29.77 in 10.0 mi WSW 4.6 mph - N/A   Clear